CST,Max TemperatureF,Mean TemperatureF,Min TemperatureF,Max Dew PointF,MeanDew PointF,Min DewpointF,Max Humidity, Mean Humidity, Min Humidity, Max Sea Level PressureIn, Mean Sea Level PressureIn, Min Sea Level PressureIn, Max VisibilityMiles, Mean VisibilityMiles, Min VisibilityMiles, Max Wind SpeedMPH, Mean Wind SpeedMPH, Max Gust SpeedMPH,PrecipitationIn, CloudCover, Events, WindDirDegrees
2012-11-1,40,33,26,30,28,25,92,78,64,30.21,30.08,29.96,10,10,7,23,13,29,0.00,6,,102
2012-11-2,34,31,28,34,29,26,100,93,85,30.20,30.04,29.96,10,4,1,17,7,21,0.30,8,Rain-Snow,134
2012-11-3,32,30,28,30,28,26,92,85,78,30.29,30.22,30.12,10,8,3,12,6,14,T,8,Snow,7
2012-11-4,38,34,30,37,33,28,100,96,92,30.31,30.15,30.01,10,8,3,16,7,21,0.08,8,Rain,146
2012-11-5,61,47,33,45,35,29,100,78,55,30.29,30.03,29.76,10,10,8,38,12,52,T,6,Rain,225
2012-11-6,50,40,29,31,28,26,89,64,39,30.18,30.13,30.06,10,10,10,22,12,28,0.00,2,,288
2012-11-7,56,43,30,43,33,26,92,68,43,30.06,29.80,29.66,10,10,10,20,8,25,0.04,2,Rain,211
2012-11-8,42,35,27,35,29,25,100,85,70,30.20,30.10,29.87,10,8,1,21,13,24,0.11,8,Snow,23
2012-11-9,27,23,18,25,20,16,100,94,88,30.20,30.03,29.92,10,4,0,25,16,31,0.45,8,Fog-Rain-Snow,71
2012-11-10,18,12,5,16,12,2,100,92,83,30.04,29.93,29.84,10,4,0,22,14,29,0.46,7,Fog-Snow,360
2012-11-11,14,9,3,10,7,-2,92,86,80,30.21,30.01,29.84,10,5,1,30,17,37,0.02,7,Snow,291
2012-11-12,19,7,-6,17,5,-7,100,90,79,30.27,30.23,30.09,10,10,8,18,6,21,0.00,1,,219
2012-11-13,31,23,14,26,18,12,100,92,84,30.23,30.16,30.09,10,6,0,10,3,13,0.00,1,Fog,224
2012-11-14,34,24,13,28,19,13,100,88,75,30.25,30.09,30.02,10,4,0,15,5,17,0.00,1,Fog,214
2012-11-15,35,20,5,27,18,8,100,88,75,30.46,30.36,30.24,10,8,0,12,3,15,0.00,1,Fog,199
2012-11-16,38,30,22,29,26,22,100,85,70,30.21,30.07,30.00,10,10,10,10,4,13,0.00,0,,190
2012-11-17,41,29,17,32,24,18,100,85,70,30.11,30.04,29.95,10,8,0,7,1,9,0.00,0,Fog,6
2012-11-18,45,30,14,34,27,16,100,83,65,30.00,29.90,29.81,10,9,7,14,3,18,0.00,2,,183
2012-11-19,43,31,18,31,27,21,100,80,59,30.15,30.08,29.98,10,10,10,10,4,13,0.00,0,,199
2012-11-20,43,36,28,34,30,26,96,78,59,29.98,29.90,29.83,10,10,10,13,4,15,0.00,0,,194
2012-11-21,46,35,24,35,31,24,100,85,70,29.85,29.75,29.60,10,9,2,21,4,24,0.00,3,,346
2012-11-22,33,24,15,31,16,5,92,86,80,30.65,30.17,29.74,10,9,3,28,16,32,T,6,Snow,314
2012-11-23,26,14,2,17,9,-1,95,82,68,30.67,30.49,30.12,10,10,10,12,5,15,0.00,3,,178
2012-11-24,37,30,22,32,24,18,92,80,68,30.08,29.96,29.80,10,10,10,21,8,25,0.03,6,Rain,262
2012-11-25,25,13,0,21,9,-3,100,84,67,30.47,30.23,29.98,10,10,6,22,9,25,T,3,Snow,340
2012-11-26,30,15,-1,25,14,-3,96,87,77,30.47,30.32,30.12,10,10,9,18,6,23,T,4,,215
2012-11-27,26,18,10,21,13,7,100,88,75,30.31,30.21,30.07,10,7,0,12,3,14,0.01,2,Fog,301
2012-11-28,28,18,8,23,15,8,100,89,78,30.27,30.15,30.09,10,8,0,16,4,18,0.00,2,Fog,22
2012-11-29,20,17,14,20,15,11,100,89,77,30.14,30.08,29.97,10,8,2,20,9,24,0.00,7,,101
2012-11-30,37,26,15,30,23,13,100,85,70,30.07,29.83,29.68,10,10,9,13,5,17,T,3,,151